Flag for Saint Vincent and Grenadines Weather past 2 weeks in Kingstown, Saint Vincent and Grenadines

Now
81 °F

Passing clouds.


Feels Like: 85 °F
Forecast: 80 / 85 °F
Wind: 14 mph from East

Location: Arnos Vale

Current Time: Apr 28, 2015 at 1:30:35 AM

Latest Report: Apr 27, 2015 at 10:00 PM


Visibility: N/A

Pressure: 29.98 "Hg

Humidity: 79%

Dew point: 73 °F

Location of KingstownLocation

Historic Weather in Kingstown — Graph

°F

Kingstown temperature yesterday

Maximum temperature yesterday: 86 °F (at 11:00 AM)
Minimum temperature yesterday: 81 °F (at 6:00 AM)
Average temperature yesterday: 83 °F

Past Weeks' High & Low Weather Summary

 TemperatureHumidityPressure
High86 °F (Apr 13, 2:00 PM)89% (Apr 14, 7:00 PM)30.09 "Hg (Apr 14, 7:00 PM)
Low75 °F (Apr 22, 7:00 PM)55% (Apr 21, 12:00 PM)29.92 "Hg (Apr 23, 5:00 PM)
Average82 °F74%29.99 "Hg
* Reported Apr 12 10:00 PM — Apr 27 10:00 PM, Kingstown, Weather by CustomWeather, © 2015

Note: Actual official high and low records may vary slightly from our data, if they occured in-between our weather recording intervals... More about our weather records

Advertising

Kingstown weather history for previous 24 hours

 ConditionsComfort  
Time TempWeatherWind HumidityBarometerVisibility
10:00 PM
Mon, Apr 27
81 °FPassing clouds.14 mph79%29.98 "HgN/A
9:00 PM81 °FPassing clouds.15 mph79%29.98 "HgN/A
8:00 PM81 °FPassing clouds.14 mph79%29.95 "HgN/A
7:00 PM82 °FPassing clouds.13 mph74%29.92 "HgN/A
6:00 PM82 °FPassing clouds.13 mph74%29.92 "HgN/A
5:00 PM84 °FScattered clouds.14 mph70%29.92 "HgN/A
4:00 PM86 °FScattered clouds.14 mph66%29.92 "HgN/A
3:00 PM86 °FScattered clouds.17 mph66%29.95 "HgN/A
2:00 PM86 °FScattered clouds.17 mph66%29.95 "HgN/A
1:00 PM84 °FScattered clouds.18 mph74%29.95 "HgN/A
11:00 AM86 °FPassing clouds.13 mph70%30.01 "HgN/A
10:00 AM84 °FPassing clouds.14 mph74%30.01 "HgN/A
9:00 AM84 °FPassing clouds.14 mph74%30.01 "HgN/A
8:00 AM82 °FPartly sunny.14 mph74%30.01 "HgN/A
7:00 AM81 °FPartly sunny.14 mph79%29.98 "HgN/A
6:00 AM81 °FPartly sunny.12 mph79%29.98 "HgN/A
Weather by CustomWeather, © 2015

See weather overviewHow to use our weather pages